Location: Binningen
(47.7924°N, 8.7261°E)
Time: 17:52:10
(UTC+00:00)

Cosmos 2181 Rocket - Pass Details

Date: 17 May 2021
Orbit: 952 x 1014 km, 82.9° (Epoch: 21 June)

Event Time Altitude Azimuth Distance (km) Brightness Sun altitude
Exits shadow 20:58:35 23° 145° (SE) 1,921 4.9 -15.4°
Maximum altitude 21:01:56 42° 89° (E) 1,344 4.5 -15.8°
Drops below altitude 10° 21:07:37 10° 21° (NNE) 2,690 6.8 -16.3°
Sets 21:10:14 0° 15° (NNE) 3,641 7.7 -16.5°
